Location: Unspecified
(0.0000°N, 0.0000°E)
Time: 01:20:56
(UTC+00:00)

LightSail 2 - Pass Details

Date: 28 November 2019
Orbit: 696 x 729 km, 24.0° (Epoch: 10 December)

Event Time Altitude Azimuth Distance (km) Brightness Sun altitude
Exits shadow 03:01:01 17° 92° (E) 1,733 7.6 -38.3°
Drops below altitude 10° 03:02:19 10° 98° (E) 2,184 8.3 -38.0°
Sets 03:04:52 0° 104° (ESE) 3,110 9.4 -37.5°
